Year,Month,Day,Hour,Minute,Value (Times are PST for temperature in C)
2015,02,18,09,54,7.10
2015,02,18,09,55,7.20
2015,02,18,09,56,7.30
2015,02,18,09,57,7.30
2015,02,18,09,58,7.40
2015,02,18,09,59,7.50
2015,02,18,10,00,7.50
2015,02,18,10,01,7.60
2015,02,18,10,02,7.70
2015,02,18,10,03,7.70
2015,02,18,10,04,7.80
2015,02,18,10,05,7.80
2015,02,18,10,06,7.80
2015,02,18,10,07,7.90
2015,02,18,10,08,7.90
2015,02,18,10,09,7.90
2015,02,18,10,10,8.00
2015,02,18,10,11,8.00
2015,02,18,10,12,8.10
2015,02,18,10,13,8.20
2015,02,18,10,14,8.20
2015,02,18,10,15,8.30
2015,02,18,10,16,8.40
2015,02,18,10,17,8.40
2015,02,18,10,18,8.50
2015,02,18,10,19,8.60
2015,02,18,10,20,8.70
2015,02,18,10,21,8.70
2015,02,18,10,22,8.80
2015,02,18,10,23,8.90
2015,02,18,10,24,8.90
2015,02,18,10,25,9.00
2015,02,18,10,26,9.10
2015,02,18,10,27,9.10
2015,02,18,10,28,9.20
2015,02,18,10,29,9.30
2015,02,18,10,30,9.30
2015,02,18,10,31,9.40
2015,02,18,10,32,9.40
2015,02,18,10,33,9.50
2015,02,18,10,34,9.60
2015,02,18,10,35,9.60
2015,02,18,10,36,9.70
2015,02,18,10,37,9.70
2015,02,18,10,38,9.80
2015,02,18,10,39,9.80
2015,02,18,10,40,9.80
2015,02,18,10,41,9.90
2015,02,18,10,42,9.90
2015,02,18,10,43,10.00
2015,02,18,10,44,10.00
2015,02,18,10,45,10.10
2015,02,18,10,46,10.10
2015,02,18,10,47,10.10
2015,02,18,10,48,10.10
2015,02,18,10,49,10.10
2015,02,18,10,50,10.20
2015,02,18,10,51,10.20
2015,02,18,10,52,10.20
2015,02,18,10,53,10.20
2015,02,18,10,54,10.20
2015,02,18,10,55,10.20
2015,02,18,10,56,10.20
2015,02,18,10,57,10.20
2015,02,18,10,58,10.30
2015,02,18,10,59,10.30
2015,02,18,11,00,10.30
2015,02,18,11,01,10.30
2015,02,18,11,02,10.30
2015,02,18,11,03,10.40
2015,02,18,11,04,10.40
2015,02,18,11,05,10.40
2015,02,18,11,06,10.40
2015,02,18,11,07,10.40
2015,02,18,11,08,10.40
2015,02,18,11,09,10.40
2015,02,18,11,10,10.40
2015,02,18,11,11,10.50
2015,02,18,11,12,10.50
2015,02,18,11,13,10.60
2015,02,18,11,14,10.60
2015,02,18,11,15,10.60
2015,02,18,11,16,10.70
2015,02,18,11,17,10.70
2015,02,18,11,18,10.70
2015,02,18,11,19,10.70
2015,02,18,11,20,10.70
2015,02,18,11,21,10.80
2015,02,18,11,22,10.80
2015,02,18,11,23,10.70
2015,02,18,11,24,10.70
2015,02,18,11,25,10.70
2015,02,18,11,26,10.60
2015,02,18,11,27,10.60
2015,02,18,11,28,10.60
2015,02,18,11,29,10.60
2015,02,18,11,30,10.60
2015,02,18,11,31,10.60
2015,02,18,11,32,10.60
2015,02,18,11,33,10.70
2015,02,18,11,34,10.70
2015,02,18,11,35,10.70
2015,02,18,11,36,10.70
2015,02,18,11,37,10.70
2015,02,18,11,38,10.80
2015,02,18,11,39,10.80
2015,02,18,11,40,10.80
2015,02,18,11,41,10.80
2015,02,18,11,42,10.90
2015,02,18,11,43,10.90
2015,02,18,11,44,10.90
2015,02,18,11,45,10.90
2015,02,18,11,46,10.90
2015,02,18,11,47,10.90
2015,02,18,11,48,10.80
2015,02,18,11,49,10.80
2015,02,18,11,50,10.80
2015,02,18,11,51,10.70
2015,02,18,11,52,10.70
2015,02,18,11,53,10.60
2015,02,18,11,54,10.60
2015,02,18,11,55,10.50
2015,02,18,11,56,10.50
2015,02,18,11,57,10.40
2015,02,18,11,58,10.40
2015,02,18,11,59,10.30
2015,02,18,12,00,10.30
2015,02,18,12,01,10.20
2015,02,18,12,02,10.20
2015,02,18,12,03,10.20
2015,02,18,12,04,10.20
2015,02,18,12,05,10.10
2015,02,18,12,06,10.10
2015,02,18,12,07,10.10
2015,02,18,12,08,10.10
2015,02,18,12,09,10.10
2015,02,18,12,10,10.10
2015,02,18,12,11,10.10
2015,02,18,12,12,10.10
2015,02,18,12,13,10.10
2015,02,18,12,14,10.10
2015,02,18,12,15,10.10
2015,02,18,12,16,10.20
2015,02,18,12,17,10.20
2015,02,18,12,18,10.20
2015,02,18,12,19,10.20
2015,02,18,12,20,10.20
2015,02,18,12,21,10.20
2015,02,18,12,22,10.20
2015,02,18,12,23,10.20
2015,02,18,12,24,10.20
2015,02,18,12,25,10.20
2015,02,18,12,26,10.20
2015,02,18,12,27,10.20
2015,02,18,12,28,10.20
2015,02,18,12,29,10.20
2015,02,18,12,30,10.20
2015,02,18,12,31,10.20
2015,02,18,12,32,10.30
2015,02,18,12,33,10.30
2015,02,18,12,34,10.30
2015,02,18,12,35,10.30
2015,02,18,12,36,10.30
2015,02,18,12,37,10.40
2015,02,18,12,38,10.40
2015,02,18,12,39,10.40
2015,02,18,12,40,10.40
2015,02,18,12,41,10.50
2015,02,18,12,42,10.50
2015,02,18,12,43,10.50
2015,02,18,12,44,10.60
2015,02,18,12,45,10.60
2015,02,18,12,46,10.60
2015,02,18,12,47,10.60
2015,02,18,12,48,10.60
2015,02,18,12,49,10.70
2015,02,18,12,50,10.70
2015,02,18,12,51,10.70
2015,02,18,12,52,10.70
2015,02,18,12,53,10.80
2015,02,18,12,54,10.80
2015,02,18,12,55,10.80
2015,02,18,12,56,10.80
2015,02,18,12,57,10.80
2015,02,18,12,58,10.80
2015,02,18,12,59,10.90
2015,02,18,13,00,10.90
2015,02,18,13,01,10.90
2015,02,18,13,02,10.90
2015,02,18,13,03,10.90
2015,02,18,13,04,11.00
2015,02,18,13,05,11.00
2015,02,18,13,06,11.00
2015,02,18,13,07,10.90
2015,02,18,13,08,10.90
2015,02,18,13,09,10.90
2015,02,18,13,10,10.90
2015,02,18,13,11,10.90
2015,02,18,13,12,10.80
2015,02,18,13,13,10.80
2015,02,18,13,14,10.80
2015,02,18,13,15,10.80
2015,02,18,13,16,10.80
2015,02,18,13,17,10.70
2015,02,18,13,18,10.70
2015,02,18,13,19,10.70
2015,02,18,13,20,10.70
2015,02,18,13,21,10.70
2015,02,18,13,22,10.70
2015,02,18,13,23,10.70
2015,02,18,13,24,10.60
2015,02,18,13,25,10.60
2015,02,18,13,26,10.60
2015,02,18,13,27,10.60
2015,02,18,13,28,10.60
2015,02,18,13,29,10.60
2015,02,18,13,30,10.60
2015,02,18,13,31,10.70
2015,02,18,13,32,10.70
2015,02,18,13,33,10.70
2015,02,18,13,34,10.70
2015,02,18,13,35,10.70
2015,02,18,13,36,10.70
2015,02,18,13,37,10.70
2015,02,18,13,38,10.70
2015,02,18,13,39,10.70
2015,02,18,13,40,10.80
2015,02,18,13,41,10.80
2015,02,18,13,42,10.80
2015,02,18,13,43,10.80
2015,02,18,13,44,10.80
2015,02,18,13,45,10.80
2015,02,18,13,46,10.80
2015,02,18,13,47,10.80
2015,02,18,13,48,10.80
2015,02,18,13,49,10.80
2015,02,18,13,50,10.80
2015,02,18,13,51,10.80
2015,02,18,13,52,10.80
2015,02,18,13,53,10.80
2015,02,18,13,54,10.80
2015,02,18,13,55,10.80
2015,02,18,13,56,10.80
2015,02,18,13,57,10.80
2015,02,18,13,58,10.80
2015,02,18,13,59,10.80
2015,02,18,14,00,10.80
2015,02,18,14,01,10.80
2015,02,18,14,02,10.80
2015,02,18,14,03,10.80
2015,02,18,14,04,10.80
2015,02,18,14,05,10.80
2015,02,18,14,06,10.80
2015,02,18,14,07,10.80
2015,02,18,14,08,10.80
2015,02,18,14,09,10.70
2015,02,18,14,10,10.70
2015,02,18,14,11,10.70
2015,02,18,14,12,10.70
2015,02,18,14,13,10.70
2015,02,18,14,14,10.70
2015,02,18,14,15,10.70
2015,02,18,14,16,10.70
2015,02,18,14,17,10.70
2015,02,18,14,18,10.70
2015,02,18,14,19,10.70
2015,02,18,14,20,10.70
2015,02,18,14,21,10.60
2015,02,18,14,22,10.60
2015,02,18,14,23,10.70
2015,02,18,14,24,10.60
2015,02,18,14,25,10.70
2015,02,18,14,26,10.70
2015,02,18,14,27,10.70
2015,02,18,14,28,10.60
2015,02,18,14,29,10.60
2015,02,18,14,30,10.60
2015,02,18,14,31,10.60
2015,02,18,14,32,10.60
2015,02,18,14,33,10.60
2015,02,18,14,34,10.60
2015,02,18,14,35,10.60
2015,02,18,14,36,10.60
2015,02,18,14,37,10.60
2015,02,18,14,38,10.60
2015,02,18,14,39,10.60
2015,02,18,14,40,10.60
2015,02,18,14,41,10.60
2015,02,18,14,42,10.60
2015,02,18,14,43,10.60
2015,02,18,14,44,10.60
2015,02,18,14,45,10.60
2015,02,18,14,46,10.60
2015,02,18,14,47,10.60
2015,02,18,14,48,10.60
2015,02,18,14,49,10.60
2015,02,18,14,50,10.60
2015,02,18,14,51,10.60
2015,02,18,14,52,10.60
